Time,TemperatureF,DewpointF,PressureIn,WindDirection,WindDirectionDegrees,WindSpeedMPH,WindSpeedGustMPH,Humidity,HourlyPrecipIn,Conditions,Clouds,dailyrainin,SolarRadiationWatts/m^2,SoftwareType,DateUTC
2013-06-04 00:01:00,50.5,46.8,30.00,WNW,288,0.0,1.0,87,0.00,,,0.00,0,WxPro DR1,2013-06-04 04:01:00,
2013-06-04 00:06:00,50.3,46.9,30.00,WNW,290,0.0,1.0,88,0.00,,,0.00,0,WxPro DR1,2013-06-04 04:06:00,
2013-06-04 00:11:00,50.1,46.7,30.00,WNW,289,0.0,0.0,88,0.00,,,0.00,0,WxPro DR1,2013-06-04 04:11:00,
2013-06-04 00:16:00,50.0,46.8,30.00,WNW,288,0.0,2.0,89,0.00,,,0.00,0,WxPro DR1,2013-06-04 04:16:00,
2013-06-04 00:21:00,49.9,46.8,30.00,WNW,290,0.0,2.0,89,0.00,,,0.00,0,WxPro DR1,2013-06-04 04:21:00,
2013-06-04 00:26:00,50.0,46.9,30.00,WNW,289,0.0,2.0,89,0.00,,,0.00,0,WxPro DR1,2013-06-04 04:26:00,
2013-06-04 00:31:00,50.2,47.0,30.00,WNW,288,0.0,3.0,89,0.00,,,0.00,0,WxPro DR1,2013-06-04 04:31:00,
2013-06-04 00:37:00,50.3,47.2,30.00,WNW,289,0.0,3.0,89,0.00,,,0.00,0,WxPro DR1,2013-06-04 04:37:00,
2013-06-04 00:42:00,50.5,47.3,30.00,WNW,289,1.0,2.0,89,0.00,,,0.00,0,WxPro DR1,2013-06-04 04:42:00,
2013-06-04 00:47:00,50.5,47.4,30.00,WNW,290,0.0,2.0,89,0.00,,,0.00,0,WxPro DR1,2013-06-04 04:47:00,
2013-06-04 00:52:00,50.6,47.4,30.00,WNW,288,0.0,2.0,89,0.00,,,0.00,0,WxPro DR1,2013-06-04 04:52:00,
2013-06-04 00:57:00,50.6,47.3,30.00,WNW,284,0.0,3.0,88,0.00,,,0.00,0,WxPro DR1,2013-06-04 04:57:00,
2013-06-04 01:02:00,50.6,47.2,30.01,WNW,285,0.0,3.0,88,0.00,,,0.00,0,WxPro DR1,2013-06-04 05:02:00,
2013-06-04 01:07:00,50.6,47.2,30.01,WNW,284,2.0,3.0,88,0.00,,,0.00,0,WxPro DR1,2013-06-04 05:07:00,
2013-06-04 01:12:00,50.6,47.2,30.01,WNW,282,0.0,3.0,88,0.00,,,0.00,0,WxPro DR1,2013-06-04 05:12:00,
2013-06-04 01:17:00,50.6,47.1,30.01,WNW,282,0.0,3.0,88,0.00,,,0.00,0,WxPro DR1,2013-06-04 05:17:00,
2013-06-04 01:22:00,50.5,47.1,30.01,WNW,282,0.0,3.0,88,0.00,,,0.00,0,WxPro DR1,2013-06-04 05:22:00,
2013-06-04 01:27:00,50.4,47.0,30.01,WNW,282,0.0,3.0,88,0.00,,,0.00,0,WxPro DR1,2013-06-04 05:27:00,
2013-06-04 01:32:00,50.3,46.9,30.01,WNW,282,0.0,3.0,88,0.00,,,0.00,0,WxPro DR1,2013-06-04 05:32:00,
2013-06-04 01:37:00,50.2,47.1,30.01,WNW,282,0.0,2.0,89,0.00,,,0.00,0,WxPro DR1,2013-06-04 05:37:00,
2013-06-04 01:42:00,50.1,47.0,30.01,WNW,282,0.0,4.0,89,0.00,,,0.00,0,WxPro DR1,2013-06-04 05:42:00,
2013-06-04 01:47:00,50.1,47.0,30.02,West,281,0.0,4.0,89,0.00,,,0.00,0,WxPro DR1,2013-06-04 05:47:00,
2013-06-04 01:52:00,50.1,47.0,30.01,WNW,282,0.0,1.0,89,0.00,,,0.00,0,WxPro DR1,2013-06-04 05:52:00,
2013-06-04 01:57:00,50.0,46.8,30.02,West,280,0.0,1.0,89,0.00,,,0.00,0,WxPro DR1,2013-06-04 05:57:00,
2013-06-04 02:02:00,49.8,46.7,30.02,WNW,282,0.0,1.0,89,0.00,,,0.00,0,WxPro DR1,2013-06-04 06:02:00,
2013-06-04 02:07:00,49.6,46.8,30.02,WNW,282,0.0,1.0,90,0.00,,,0.00,0,WxPro DR1,2013-06-04 06:07:00,
2013-06-04 02:12:00,49.4,46.6,30.02,West,281,0.0,2.0,90,0.00,,,0.00,0,WxPro DR1,2013-06-04 06:12:00,
2013-06-04 02:17:00,49.2,46.6,30.02,WNW,282,0.0,2.0,90,0.00,,,0.00,0,WxPro DR1,2013-06-04 06:17:00,
2013-06-04 02:22:00,49.2,46.7,30.02,West,281,0.0,2.0,91,0.00,,,0.00,0,WxPro DR1,2013-06-04 06:22:00,
2013-06-04 02:27:00,49.1,46.6,30.02,West,280,0.0,2.0,91,0.00,,,0.00,0,WxPro DR1,2013-06-04 06:27:00,
2013-06-04 02:32:00,49.1,46.5,30.02,West,280,0.0,1.0,91,0.00,,,0.00,0,WxPro DR1,2013-06-04 06:32:00,
2013-06-04 02:37:00,49.0,46.5,30.03,WNW,282,0.0,2.0,91,0.00,,,0.00,0,WxPro DR1,2013-06-04 06:37:00,
2013-06-04 02:42:00,49.0,46.5,30.03,WNW,282,0.0,2.0,91,0.00,,,0.00,0,WxPro DR1,2013-06-04 06:42:00,
2013-06-04 02:47:00,48.9,46.5,30.03,WNW,282,0.0,2.0,92,0.00,,,0.00,0,WxPro DR1,2013-06-04 06:47:00,
2013-06-04 02:52:00,48.8,46.6,30.03,WNW,282,0.0,2.0,92,0.00,,,0.00,0,WxPro DR1,2013-06-04 06:52:00,
2013-06-04 02:57:00,48.8,46.6,30.03,WNW,282,0.0,2.0,92,0.00,,,0.00,0,WxPro DR1,2013-06-04 06:57:00,
2013-06-04 03:02:00,48.7,46.5,30.03,WNW,282,0.0,2.0,92,0.00,,,0.00,0,WxPro DR1,2013-06-04 07:02:00,
2013-06-04 03:07:00,48.6,46.4,30.03,WNW,282,0.0,2.0,92,0.00,,,0.00,0,WxPro DR1,2013-06-04 07:07:00,
2013-06-04 03:12:00,48.5,46.3,30.03,WNW,282,0.0,2.0,92,0.00,,,0.00,0,WxPro DR1,2013-06-04 07:12:00,
2013-06-04 03:17:00,48.5,46.3,30.03,WNW,282,0.0,0.0,92,0.00,,,0.00,0,WxPro DR1,2013-06-04 07:17:00,
2013-06-04 03:22:00,48.4,46.2,30.03,WNW,282,0.0,1.0,92,0.00,,,0.00,0,WxPro DR1,2013-06-04 07:22:00,
2013-06-04 03:27:00,48.3,46.1,30.03,West,281,0.0,3.0,92,0.00,,,0.00,0,WxPro DR1,2013-06-04 07:27:00,
2013-06-04 03:32:00,48.3,46.1,30.03,WNW,282,0.0,3.0,92,0.00,,,0.00,0,WxPro DR1,2013-06-04 07:32:00,
2013-06-04 03:37:00,48.2,46.0,30.03,WNW,282,0.0,0.0,92,0.00,,,0.00,0,WxPro DR1,2013-06-04 07:37:00,
2013-06-04 03:42:00,48.1,46.2,30.03,WNW,282,0.0,1.0,93,0.00,,,0.00,0,WxPro DR1,2013-06-04 07:42:00,
2013-06-04 03:47:00,48.0,46.1,30.03,WNW,282,0.0,1.0,93,0.00,,,0.00,0,WxPro DR1,2013-06-04 07:47:00,
2013-06-04 03:52:00,48.0,46.0,30.03,WNW,282,0.0,1.0,93,0.00,,,0.00,0,WxPro DR1,2013-06-04 07:52:00,
2013-06-04 03:57:00,47.8,45.9,30.03,WNW,282,0.0,1.0,93,0.00,,,0.00,0,WxPro DR1,2013-06-04 07:57:00,
2013-06-04 04:02:00,47.7,45.8,30.03,WNW,282,0.0,1.0,93,0.00,,,0.00,0,WxPro DR1,2013-06-04 08:02:00,
2013-06-04 04:07:00,47.6,45.6,30.03,WNW,282,0.0,0.0,93,0.00,,,0.00,0,WxPro DR1,2013-06-04 08:07:00,
2013-06-04 04:12:00,47.4,45.5,30.03,WNW,282,0.0,0.0,93,0.00,,,0.00,0,WxPro DR1,2013-06-04 08:12:00,
2013-06-04 04:17:00,47.3,45.4,30.04,WNW,282,0.0,0.0,93,0.00,,,0.00,0,WxPro DR1,2013-06-04 08:17:00,
2013-06-04 04:22:00,47.2,45.5,30.04,WNW,282,0.0,0.0,94,0.00,,,0.00,0,WxPro DR1,2013-06-04 08:22:00,
2013-06-04 04:27:00,47.0,45.2,30.04,WNW,282,0.0,0.0,93,0.00,,,0.00,0,WxPro DR1,2013-06-04 08:27:00,
2013-06-04 04:32:00,46.9,45.3,30.04,West,280,0.0,0.0,94,0.00,,,0.00,0,WxPro DR1,2013-06-04 08:32:00,
2013-06-04 04:37:00,46.8,45.2,30.04,WNW,282,0.0,0.0,94,0.00,,,0.00,0,WxPro DR1,2013-06-04 08:37:00,
2013-06-04 04:42:00,46.8,45.1,30.04,WNW,282,0.0,1.0,94,0.00,,,0.00,0,WxPro DR1,2013-06-04 08:42:00,
2013-06-04 04:47:00,46.8,45.2,30.04,WNW,282,0.0,1.0,94,0.00,,,0.00,0,WxPro DR1,2013-06-04 08:47:00,
2013-06-04 04:52:00,46.9,45.2,30.04,WNW,282,0.0,2.0,94,0.00,,,0.00,0,WxPro DR1,2013-06-04 08:52:00,
2013-06-04 04:57:00,47.0,45.3,30.04,WNW,282,0.0,3.0,94,0.00,,,0.00,0,WxPro DR1,2013-06-04 08:57:00,
2013-06-04 05:02:00,47.0,45.4,30.04,West,281,0.0,3.0,94,0.00,,,0.00,0,WxPro DR1,2013-06-04 09:02:00,
2013-06-04 05:07:00,47.0,45.4,30.04,WNW,282,0.0,2.0,94,0.00,,,0.00,0,WxPro DR1,2013-06-04 09:07:00,
2013-06-04 05:12:00,47.0,45.4,30.04,WNW,282,0.0,2.0,94,0.00,,,0.00,0,WxPro DR1,2013-06-04 09:12:00,
2013-06-04 05:17:00,47.0,45.1,30.05,WNW,282,0.0,1.0,93,0.00,,,0.00,0,WxPro DR1,2013-06-04 09:17:00,
2013-06-04 05:22:00,46.9,45.0,30.05,WNW,282,0.0,1.0,93,0.00,,,0.00,0,WxPro DR1,2013-06-04 09:22:00,
2013-06-04 05:27:00,46.9,45.0,30.05,WNW,282,0.0,3.0,93,0.00,,,0.00,0,WxPro DR1,2013-06-04 09:27:00,
2013-06-04 05:32:00,46.8,44.9,30.05,WNW,282,0.0,3.0,93,0.00,,,0.00,0,WxPro DR1,2013-06-04 09:32:00,
2013-06-04 05:37:00,46.7,44.8,30.06,WNW,282,0.0,2.0,93,0.00,,,0.00,5,WxPro DR1,2013-06-04 09:37:00,
2013-06-04 05:42:00,46.7,44.8,30.06,WNW,282,0.0,2.0,93,0.00,,,0.00,7,WxPro DR1,2013-06-04 09:42:00,
2013-06-04 05:47:00,46.6,44.7,30.06,WNW,282,0.0,2.0,93,0.00,,,0.00,9,WxPro DR1,2013-06-04 09:47:00,
2013-06-04 05:52:00,46.5,44.3,30.06,WNW,282,0.0,0.0,92,0.00,,,0.00,11,WxPro DR1,2013-06-04 09:52:00,
2013-06-04 05:57:00,46.5,44.3,30.06,West,281,0.0,4.0,92,0.00,,,0.00,12,WxPro DR1,2013-06-04 09:57:00,
2013-06-04 06:02:00,46.5,44.3,30.06,WNW,282,0.0,4.0,92,0.00,,,0.00,14,WxPro DR1,2013-06-04 10:02:00,
2013-06-04 06:07:00,46.5,44.3,30.06,WNW,282,0.0,4.0,92,0.00,,,0.00,16,WxPro DR1,2013-06-04 10:07:00,
2013-06-04 06:12:00,46.6,44.4,30.06,WNW,282,0.0,6.0,92,0.00,,,0.00,18,WxPro DR1,2013-06-04 10:12:00,
2013-06-04 06:17:00,46.9,44.4,30.06,West,281,0.0,6.0,91,0.00,,,0.00,19,WxPro DR1,2013-06-04 10:17:00,
2013-06-04 06:22:00,47.1,44.6,30.06,WNW,282,1.0,3.0,91,0.00,,,0.00,21,WxPro DR1,2013-06-04 10:22:00,
2013-06-04 06:27:00,47.3,44.5,30.06,WNW,282,2.0,4.0,90,0.00,,,0.00,23,WxPro DR1,2013-06-04 10:27:00,
2013-06-04 06:32:00,47.6,44.5,30.06,West,281,0.0,4.0,89,0.00,,,0.00,25,WxPro DR1,2013-06-04 10:32:00,
2013-06-04 06:37:00,47.9,44.5,30.06,WNW,284,2.0,5.0,88,0.00,,,0.00,26,WxPro DR1,2013-06-04 10:37:00,
2013-06-04 06:42:00,48.3,44.6,30.06,WNW,283,2.0,5.0,87,0.00,,,0.00,26,WxPro DR1,2013-06-04 10:42:00,
2013-06-04 06:47:00,48.7,44.7,30.06,WNW,294,3.0,5.0,86,0.00,,,0.00,28,WxPro DR1,2013-06-04 10:47:00,
2013-06-04 06:52:00,49.1,44.5,30.06,WSW,254,3.0,5.0,84,0.00,,,0.00,33,WxPro DR1,2013-06-04 10:52:00,
2013-06-04 06:57:00,49.4,44.5,30.07,WSW,249,1.0,5.0,83,0.00,,,0.00,30,WxPro DR1,2013-06-04 10:57:00,
2013-06-04 07:02:00,49.8,44.5,30.07,NW,318,1.0,5.0,82,0.00,,,0.00,32,WxPro DR1,2013-06-04 11:02:00,
2013-06-04 07:07:00,50.1,44.5,30.07,WSW,253,2.0,7.0,81,0.00,,,0.00,32,WxPro DR1,2013-06-04 11:07:00,
2013-06-04 07:12:00,50.4,44.8,30.07,West,268,3.0,7.0,81,0.00,,,0.00,40,WxPro DR1,2013-06-04 11:12:00,
2013-06-04 07:17:00,50.7,44.8,30.08,West,262,0.0,5.0,80,0.00,,,0.00,251,WxPro DR1,2013-06-04 11:17:00,
2013-06-04 07:22:00,51.2,44.9,30.08,WSW,240,3.0,6.0,79,0.00,,,0.00,265,WxPro DR1,2013-06-04 11:22:00,
2013-06-04 07:27:00,51.6,45.0,30.07,WSW,248,1.0,6.0,78,0.00,,,0.00,283,WxPro DR1,2013-06-04 11:27:00,
2013-06-04 07:32:00,52.0,45.0,30.08,West,267,1.0,11.0,77,0.00,,,0.00,297,WxPro DR1,2013-06-04 11:32:00,
2013-06-04 07:37:00,52.3,45.3,30.08,West,271,0.0,11.0,77,0.00,,,0.00,313,WxPro DR1,2013-06-04 11:37:00,
2013-06-04 07:42:00,52.7,45.3,30.08,West,277,0.0,9.0,76,0.00,,,0.00,329,WxPro DR1,2013-06-04 11:42:00,
2013-06-04 07:47:00,53.2,45.8,30.08,West,271,7.0,7.0,76,0.00,,,0.00,346,WxPro DR1,2013-06-04 11:47:00,
2013-06-04 07:52:00,53.7,45.9,30.08,West,279,0.0,7.0,75,0.00,,,0.00,362,WxPro DR1,2013-06-04 11:52:00,
2013-06-04 07:57:00,54.2,46.0,30.08,North,351,1.0,7.0,73,0.00,,,0.00,380,WxPro DR1,2013-06-04 11:57:00,
2013-06-04 08:02:00,54.6,45.7,30.09,West,281,5.0,7.0,72,0.00,,,0.00,396,WxPro DR1,2013-06-04 12:02:00,
2013-06-04 08:07:00,54.7,45.8,30.08,WSW,249,0.0,7.0,72,0.00,,,0.00,410,WxPro DR1,2013-06-04 12:07:00,
2013-06-04 08:12:00,55.1,46.1,30.08,NNW,332,2.0,7.0,72,0.00,,,0.00,427,WxPro DR1,2013-06-04 12:12:00,
2013-06-04 08:17:00,55.4,45.8,30.08,NW,307,2.0,7.0,70,0.00,,,0.00,445,WxPro DR1,2013-06-04 12:17:00,
2013-06-04 08:22:00,55.5,45.9,30.08,West,270,1.0,7.0,70,0.00,,,0.00,461,WxPro DR1,2013-06-04 12:22:00,
2013-06-04 08:27:00,55.6,45.6,30.08,WSW,258,6.0,9.0,69,0.00,,,0.00,476,WxPro DR1,2013-06-04 12:27:00,
2013-06-04 08:32:00,55.8,45.8,30.09,WNW,289,2.0,9.0,69,0.00,,,0.00,492,WxPro DR1,2013-06-04 12:32:00,
2013-06-04 08:37:00,56.2,45.8,30.09,SW,236,3.0,9.0,68,0.00,,,0.00,510,WxPro DR1,2013-06-04 12:37:00,
2013-06-04 08:42:00,56.5,46.1,30.09,NNW,346,1.0,9.0,68,0.00,,,0.00,524,WxPro DR1,2013-06-04 12:42:00,
2013-06-04 08:47:00,57.1,45.8,30.09,North,9,5.0,9.0,66,0.00,,,0.00,540,WxPro DR1,2013-06-04 12:47:00,
2013-06-04 08:52:00,57.3,45.6,30.09,NW,306,5.0,10.0,65,0.00,,,0.00,555,WxPro DR1,2013-06-04 12:52:00,
2013-06-04 08:57:00,57.2,45.5,30.10,NNE,21,3.0,10.0,65,0.00,,,0.00,571,WxPro DR1,2013-06-04 12:57:00,
2013-06-04 09:02:00,57.7,45.8,30.10,North,351,4.0,12.0,64,0.00,,,0.00,587,WxPro DR1,2013-06-04 13:02:00,
2013-06-04 09:07:00,58.6,46.0,30.10,NNW,335,3.0,12.0,63,0.00,,,0.00,603,WxPro DR1,2013-06-04 13:07:00,
2013-06-04 09:12:00,58.7,45.5,30.10,NW,322,6.0,11.0,62,0.00,,,0.00,619,WxPro DR1,2013-06-04 13:12:00,
2013-06-04 09:17:00,58.3,45.0,30.10,WNW,282,2.0,12.0,61,0.00,,,0.00,631,WxPro DR1,2013-06-04 13:17:00,
2013-06-04 09:22:00,58.4,45.8,30.11,NW,322,4.0,12.0,63,0.00,,,0.00,645,WxPro DR1,2013-06-04 13:22:00,
2013-06-04 09:27:00,58.6,45.5,30.11,NNW,340,1.0,12.0,62,0.00,,,0.00,663,WxPro DR1,2013-06-04 13:27:00,
2013-06-04 09:32:00,58.7,44.7,30.11,NW,315,2.0,13.0,60,0.00,,,0.00,675,WxPro DR1,2013-06-04 13:32:00,
2013-06-04 09:37:00,58.5,44.7,30.11,NW,317,1.0,13.0,60,0.00,,,0.00,689,WxPro DR1,2013-06-04 13:37:00,
2013-06-04 09:42:00,58.8,45.6,30.11,NW,306,6.0,10.0,61,0.00,,,0.00,705,WxPro DR1,2013-06-04 13:42:00,
2013-06-04 09:47:00,59.0,45.6,30.11,West,275,4.0,12.0,61,0.00,,,0.00,719,WxPro DR1,2013-06-04 13:47:00,
2013-06-04 09:52:00,59.0,45.6,30.11,West,267,0.0,12.0,61,0.00,,,0.00,731,WxPro DR1,2013-06-04 13:52:00,
2013-06-04 09:57:00,59.2,46.6,30.11,North,7,2.0,11.0,63,0.00,,,0.00,744,WxPro DR1,2013-06-04 13:57:00,
2013-06-04 10:02:00,60.2,47.0,30.11,WNW,295,9.0,10.0,62,0.00,,,0.00,758,WxPro DR1,2013-06-04 14:02:00,
2013-06-04 10:07:00,60.5,46.5,30.11,NW,317,8.0,11.0,60,0.00,,,0.00,768,WxPro DR1,2013-06-04 14:07:00,
2013-06-04 10:12:00,59.8,45.5,30.11,SW,234,5.0,11.0,59,0.00,,,0.00,782,WxPro DR1,2013-06-04 14:12:00,
2013-06-04 10:17:00,59.2,45.3,30.11,North,7,10.0,11.0,60,0.00,,,0.00,795,WxPro DR1,2013-06-04 14:17:00,
2013-06-04 10:22:00,59.0,45.6,30.11,WNW,295,1.0,12.0,61,0.00,,,0.00,807,WxPro DR1,2013-06-04 14:22:00,
2013-06-04 10:27:00,59.1,45.8,30.11,West,279,7.0,12.0,61,0.00,,,0.00,819,WxPro DR1,2013-06-04 14:27:00,
2013-06-04 10:32:00,59.5,44.7,30.11,NW,315,0.0,12.0,58,0.00,,,0.00,830,WxPro DR1,2013-06-04 14:32:00,
2013-06-04 10:37:00,59.7,45.0,30.12,WSW,250,2.0,12.0,58,0.00,,,0.00,844,WxPro DR1,2013-06-04 14:37:00,
2013-06-04 10:42:00,60.3,45.2,30.12,WNW,282,7.0,14.0,57,0.00,,,0.00,858,WxPro DR1,2013-06-04 14:42:00,
2013-06-04 10:47:00,60.5,45.2,30.12,WNW,297,4.0,14.0,57,0.00,,,0.00,870,WxPro DR1,2013-06-04 14:47:00,
2013-06-04 10:52:00,60.3,45.3,30.12,WNW,288,3.0,11.0,58,0.00,,,0.00,875,WxPro DR1,2013-06-04 14:52:00,
2013-06-04 10:57:00,60.5,46.1,30.12,West,275,3.0,9.0,59,0.00,,,0.00,888,WxPro DR1,2013-06-04 14:57:00,
2013-06-04 11:02:00,60.8,44.5,30.12,SSW,198,2.0,13.0,55,0.00,,,0.00,896,WxPro DR1,2013-06-04 15:02:00,
2013-06-04 11:07:00,60.7,44.6,30.12,West,263,3.0,13.0,55,0.00,,,0.00,905,WxPro DR1,2013-06-04 15:07:00,
2013-06-04 11:12:00,60.8,45.0,30.12,NW,309,2.0,11.0,56,0.00,,,0.00,916,WxPro DR1,2013-06-04 15:12:00,
2013-06-04 11:17:00,61.2,45.0,30.12,WNW,283,2.0,10.0,55,0.00,,,0.00,926,WxPro DR1,2013-06-04 15:17:00,
2013-06-04 11:22:00,61.5,44.9,30.12,NNW,327,1.0,10.0,54,0.00,,,0.00,935,WxPro DR1,2013-06-04 15:22:00,
2013-06-04 11:27:00,62.0,43.9,30.12,NW,323,5.0,11.0,51,0.00,,,0.00,947,WxPro DR1,2013-06-04 15:27:00,
2013-06-04 11:32:00,61.9,44.5,30.12,NW,321,9.0,11.0,53,0.00,,,0.00,956,WxPro DR1,2013-06-04 15:32:00,
2013-06-04 11:37:00,61.8,43.5,30.12,NW,314,5.0,11.0,51,0.00,,,0.00,965,WxPro DR1,2013-06-04 15:37:00,
2013-06-04 11:42:00,61.6,42.2,30.12,NNW,329,2.0,11.0,49,0.00,,,0.00,970,WxPro DR1,2013-06-04 15:42:00,
2013-06-04 11:47:00,61.2,43.2,30.12,NNW,346,3.0,11.0,52,0.00,,,0.00,977,WxPro DR1,2013-06-04 15:47:00,
2013-06-04 11:52:00,61.5,42.7,30.12,NW,310,3.0,15.0,50,0.00,,,0.00,981,WxPro DR1,2013-06-04 15:52:00,
2013-06-04 11:57:00,61.7,43.8,30.12,West,273,2.0,15.0,52,0.00,,,0.00,993,WxPro DR1,2013-06-04 15:57:00,
2013-06-04 12:02:00,62.1,42.9,30.12,WNW,291,0.0,11.0,49,0.00,,,0.00,991,WxPro DR1,2013-06-04 16:02:00,
2013-06-04 12:07:00,62.4,43.8,30.12,WNW,283,4.0,11.0,51,0.00,,,0.00,998,WxPro DR1,2013-06-04 16:07:00,
2013-06-04 12:12:00,62.6,42.7,30.12,NNW,334,4.0,11.0,48,0.00,,,0.00,1004,WxPro DR1,2013-06-04 16:12:00,
2013-06-04 12:17:00,63.2,42.1,30.12,West,271,5.0,12.0,46,0.00,,,0.00,1007,WxPro DR1,2013-06-04 16:17:00,
2013-06-04 12:22:00,63.1,42.7,30.12,NNE,20,2.0,12.0,47,0.00,,,0.00,1007,WxPro DR1,2013-06-04 16:22:00,
2013-06-04 12:27:00,63.5,42.9,30.11,NW,308,9.0,10.0,47,0.00,,,0.00,1016,WxPro DR1,2013-06-04 16:27:00,
2013-06-04 12:32:00,63.6,42.3,30.11,NW,314,3.0,10.0,46,0.00,,,0.00,1018,WxPro DR1,2013-06-04 16:32:00,
2013-06-04 12:37:00,63.8,43.2,30.11,WNW,282,2.0,9.0,47,0.00,,,0.00,1018,WxPro DR1,2013-06-04 16:37:00,
2013-06-04 12:42:00,64.5,42.1,30.11,SW,215,0.0,10.0,44,0.00,,,0.00,1023,WxPro DR1,2013-06-04 16:42:00,
2013-06-04 12:47:00,63.9,43.0,30.11,WSW,238,0.0,10.0,47,0.00,,,0.00,1023,WxPro DR1,2013-06-04 16:47:00,
2013-06-04 12:52:00,64.1,41.8,30.11,West,271,3.0,10.0,44,0.00,,,0.00,1027,WxPro DR1,2013-06-04 16:52:00,
2013-06-04 12:57:00,64.2,43.0,30.11,NW,323,3.0,10.0,46,0.00,,,0.00,1030,WxPro DR1,2013-06-04 16:57:00,
2013-06-04 13:02:00,64.8,42.5,30.11,NNW,331,1.0,6.0,44,0.00,,,0.00,1025,WxPro DR1,2013-06-04 17:02:00,
2013-06-04 13:07:00,65.6,41.9,30.10,WNW,288,1.0,11.0,42,0.00,,,0.00,1030,WxPro DR1,2013-06-04 17:07:00,
2013-06-04 13:12:00,65.6,42.7,30.10,NNW,336,1.0,11.0,43,0.00,,,0.00,1028,WxPro DR1,2013-06-04 17:12:00,
2013-06-04 13:17:00,65.8,41.8,30.10,West,269,1.0,11.0,42,0.00,,,0.00,1034,WxPro DR1,2013-06-04 17:17:00,
2013-06-04 13:22:00,65.2,40.6,30.10,NNE,13,1.0,11.0,41,0.00,,,0.00,1034,WxPro DR1,2013-06-04 17:22:00,
2013-06-04 13:27:00,65.5,41.1,30.10,NNW,336,0.0,6.0,41,0.00,,,0.00,1032,WxPro DR1,2013-06-04 17:27:00,
2013-06-04 13:32:00,66.1,42.4,30.10,North,10,0.0,4.0,42,0.00,,,0.00,1030,WxPro DR1,2013-06-04 17:32:00,
2013-06-04 13:37:00,66.6,43.3,30.10,West,259,0.0,7.0,43,0.00,,,0.00,1028,WxPro DR1,2013-06-04 17:37:00,
2013-06-04 13:42:00,66.7,42.5,30.09,West,280,4.0,9.0,41,0.00,,,0.00,1023,WxPro DR1,2013-06-04 17:42:00,
2013-06-04 13:47:00,66.8,41.2,30.09,NW,321,3.0,9.0,39,0.00,,,0.00,1021,WxPro DR1,2013-06-04 17:47:00,
2013-06-04 13:52:00,66.0,42.2,30.09,North,356,4.0,11.0,42,0.00,,,0.00,1018,WxPro DR1,2013-06-04 17:52:00,
2013-06-04 13:57:00,66.1,42.3,30.09,NE,49,3.0,11.0,42,0.00,,,0.00,1011,WxPro DR1,2013-06-04 17:57:00,
2013-06-04 14:02:00,67.1,42.3,30.09,WNW,302,0.0,5.0,41,0.00,,,0.00,1004,WxPro DR1,2013-06-04 18:02:00,
2013-06-04 14:07:00,67.5,43.4,30.09,North,351,9.0,10.0,42,0.00,,,0.00,1005,WxPro DR1,2013-06-04 18:07:00,
2013-06-04 14:12:00,66.7,42.4,30.09,North,351,0.0,11.0,41,0.00,,,0.00,1002,WxPro DR1,2013-06-04 18:12:00,
2013-06-04 14:17:00,66.4,42.0,30.10,NW,306,0.0,11.0,41,0.00,,,0.00,993,WxPro DR1,2013-06-04 18:17:00,
2013-06-04 14:22:00,66.7,43.3,30.10,WNW,297,2.0,10.0,43,0.00,,,0.00,990,WxPro DR1,2013-06-04 18:22:00,
2013-06-04 14:27:00,66.8,43.6,30.10,WNW,294,2.0,10.0,43,0.00,,,0.00,983,WxPro DR1,2013-06-04 18:27:00,
2013-06-04 16:38:00,68.5,43.9,30.10,West,270,4.0,5.0,41,0.00,,,0.00,717,WxPro DR1,2013-06-04 20:38:00,
2013-06-04 16:43:00,68.3,43.0,30.09,NW,313,0.0,5.0,40,0.00,,,0.00,700,WxPro DR1,2013-06-04 20:43:00,
2013-06-04 16:48:00,68.2,43.3,30.09,West,273,4.0,5.0,41,0.00,,,0.00,680,WxPro DR1,2013-06-04 20:48:00,
2013-06-04 16:53:00,68.4,42.8,30.09,WNW,292,0.0,9.0,39,0.00,,,0.00,666,WxPro DR1,2013-06-04 20:53:00,
2013-06-04 16:58:00,68.7,44.6,30.09,WNW,292,3.0,9.0,42,0.00,,,0.00,652,WxPro DR1,2013-06-04 20:58:00,
2013-06-04 17:03:00,69.0,43.7,30.09,WSW,246,1.0,9.0,40,0.00,,,0.00,636,WxPro DR1,2013-06-04 21:03:00,
2013-06-04 17:08:00,68.8,43.5,30.09,NNW,339,2.0,9.0,40,0.00,,,0.00,619,WxPro DR1,2013-06-04 21:08:00,
2013-06-04 17:13:00,68.7,43.9,30.09,WNW,288,3.0,11.0,41,0.00,,,0.00,608,WxPro DR1,2013-06-04 21:13:00,
2013-06-04 17:18:00,68.7,43.8,30.09,SW,217,0.0,11.0,41,0.00,,,0.00,592,WxPro DR1,2013-06-04 21:18:00,
2013-06-04 17:23:00,68.7,43.8,30.09,NNW,334,3.0,7.0,41,0.00,,,0.00,577,WxPro DR1,2013-06-04 21:23:00,
2013-06-04 17:28:00,68.8,43.5,30.09,NW,314,5.0,7.0,40,0.00,,,0.00,559,WxPro DR1,2013-06-04 21:28:00,
2013-06-04 17:33:00,68.7,44.0,30.10,NNW,327,9.0,11.0,41,0.00,,,0.00,548,WxPro DR1,2013-06-04 21:33:00,
2013-06-04 17:38:00,68.3,43.2,30.10,WNW,291,3.0,11.0,40,0.00,,,0.00,533,WxPro DR1,2013-06-04 21:38:00,
2013-06-04 17:43:00,68.0,44.0,30.10,NW,311,1.0,10.0,42,0.00,,,0.00,515,WxPro DR1,2013-06-04 21:43:00,
2013-06-04 17:48:00,68.3,43.0,30.10,NW,313,2.0,11.0,40,0.00,,,0.00,501,WxPro DR1,2013-06-04 21:48:00,
2013-06-04 17:53:00,68.2,43.2,30.10,WNW,286,6.0,11.0,40,0.00,,,0.00,483,WxPro DR1,2013-06-04 21:53:00,
2013-06-04 17:58:00,68.1,43.2,30.10,West,280,2.0,10.0,40,0.00,,,0.00,469,WxPro DR1,2013-06-04 21:58:00,
2013-06-04 18:03:00,68.1,43.5,30.10,WNW,294,0.0,10.0,41,0.00,,,0.00,454,WxPro DR1,2013-06-04 22:03:00,
2013-06-04 18:08:00,68.5,42.3,30.10,North,356,1.0,7.0,39,0.00,,,0.00,439,WxPro DR1,2013-06-04 22:08:00,
2013-06-04 18:13:00,68.5,42.0,30.10,NW,306,1.0,7.0,38,0.00,,,0.00,424,WxPro DR1,2013-06-04 22:13:00,
2013-06-04 18:18:00,68.2,41.0,30.10,NW,314,5.0,13.0,37,0.00,,,0.00,406,WxPro DR1,2013-06-04 22:18:00,
2013-06-04 18:23:00,67.5,42.2,30.11,NNW,345,1.0,13.0,40,0.00,,,0.00,390,WxPro DR1,2013-06-04 22:23:00,
2013-06-04 18:28:00,67.4,42.4,30.11,West,280,1.0,10.0,40,0.00,,,0.00,373,WxPro DR1,2013-06-04 22:28:00,
2013-06-04 18:33:00,67.6,42.8,30.11,WNW,294,0.0,7.0,40,0.00,,,0.00,357,WxPro DR1,2013-06-04 22:33:00,
2013-06-04 18:38:00,67.9,43.4,30.11,NNW,334,2.0,7.0,41,0.00,,,0.00,339,WxPro DR1,2013-06-04 22:38:00,
2013-06-04 18:43:00,67.9,42.7,30.11,North,7,3.0,7.0,40,0.00,,,0.00,323,WxPro DR1,2013-06-04 22:43:00,
2013-06-04 18:48:00,67.7,43.1,30.11,WNW,292,6.0,10.0,41,0.00,,,0.00,308,WxPro DR1,2013-06-04 22:48:00,
2013-06-04 18:53:00,67.4,43.5,30.11,NW,318,3.0,10.0,42,0.00,,,0.00,294,WxPro DR1,2013-06-04 22:53:00,
2013-06-04 18:58:00,67.1,43.7,30.11,West,273,9.0,10.0,43,0.00,,,0.00,279,WxPro DR1,2013-06-04 22:58:00,
2013-06-04 19:03:00,67.1,43.2,30.11,West,259,0.0,10.0,42,0.00,,,0.00,257,WxPro DR1,2013-06-04 23:03:00,
2013-06-04 19:08:00,66.8,42.6,30.11,West,277,3.0,10.0,41,0.00,,,0.00,236,WxPro DR1,2013-06-04 23:08:00,
2013-06-04 19:13:00,66.5,42.7,30.11,West,269,0.0,9.0,42,0.00,,,0.00,214,WxPro DR1,2013-06-04 23:13:00,
2013-06-04 19:18:00,66.8,42.9,30.11,WNW,282,1.0,7.0,42,0.00,,,0.00,199,WxPro DR1,2013-06-04 23:18:00,
2013-06-04 19:23:00,67.0,43.8,30.11,WNW,292,5.0,5.0,43,0.00,,,0.00,178,WxPro DR1,2013-06-04 23:23:00,
2013-06-04 19:28:00,66.9,43.7,30.11,West,272,1.0,7.0,43,0.00,,,0.00,156,WxPro DR1,2013-06-04 23:28:00,
2013-06-04 19:33:00,66.6,44.0,30.12,West,280,2.0,7.0,44,0.00,,,0.00,139,WxPro DR1,2013-06-04 23:33:00,
2013-06-04 19:38:00,66.6,43.6,30.11,WNW,300,2.0,6.0,43,0.00,,,0.00,121,WxPro DR1,2013-06-04 23:38:00,
2013-06-04 19:43:00,66.3,43.7,30.12,WNW,298,0.0,5.0,44,0.00,,,0.00,102,WxPro DR1,2013-06-04 23:43:00,
2013-06-04 19:48:00,66.2,43.6,30.12,WNW,300,0.0,5.0,44,0.00,,,0.00,88,WxPro DR1,2013-06-04 23:48:00,
2013-06-04 19:53:00,66.3,43.8,30.12,WNW,295,1.0,6.0,44,0.00,,,0.00,76,WxPro DR1,2013-06-04 23:53:00,
2013-06-04 19:58:00,66.1,43.6,30.12,WNW,292,4.0,6.0,44,0.00,,,0.00,60,WxPro DR1,2013-06-04 23:58:00,
2013-06-04 20:03:00,65.6,43.2,30.12,WNW,298,3.0,6.0,44,0.00,,,0.00,47,WxPro DR1,2013-06-05 00:03:00,
2013-06-04 20:08:00,65.2,43.3,30.12,NNW,347,2.0,7.0,45,0.00,,,0.00,26,WxPro DR1,2013-06-05 00:08:00,
2013-06-04 20:13:00,64.7,43.2,30.12,NNW,340,0.0,7.0,46,0.00,,,0.00,21,WxPro DR1,2013-06-05 00:13:00,
2013-06-04 20:18:00,64.1,43.5,30.12,NNW,340,0.0,6.0,47,0.00,,,0.00,18,WxPro DR1,2013-06-05 00:18:00,
2013-06-04 20:23:00,63.6,43.5,30.12,NNW,340,0.0,3.0,48,0.00,,,0.00,14,WxPro DR1,2013-06-05 00:23:00,
2013-06-04 20:28:00,63.1,43.6,30.12,NNW,340,0.0,3.0,49,0.00,,,0.00,11,WxPro DR1,2013-06-05 00:28:00,
2013-06-04 20:33:00,62.7,43.2,30.12,NNW,340,0.0,3.0,49,0.00,,,0.00,7,WxPro DR1,2013-06-05 00:33:00,
2013-06-04 20:38:00,62.3,43.4,30.12,NNW,340,1.0,3.0,50,0.00,,,0.00,5,WxPro DR1,2013-06-05 00:38:00,
2013-06-04 20:43:00,61.9,43.6,30.13,NNW,339,0.0,3.0,51,0.00,,,0.00,0,WxPro DR1,2013-06-05 00:43:00,
2013-06-04 20:48:00,61.5,44.0,30.13,NNW,340,0.0,2.0,52,0.00,,,0.00,0,WxPro DR1,2013-06-05 00:48:00,
2013-06-04 20:53:00,61.0,43.8,30.13,NNW,339,0.0,2.0,53,0.00,,,0.00,0,WxPro DR1,2013-06-05 00:53:00,
2013-06-04 20:58:00,60.6,44.0,30.13,NNW,340,0.0,2.0,54,0.00,,,0.00,0,WxPro DR1,2013-06-05 00:58:00,
2013-06-04 21:03:00,60.2,43.6,30.13,NNW,340,0.0,1.0,54,0.00,,,0.00,0,WxPro DR1,2013-06-05 01:03:00,
2013-06-04 21:08:00,59.8,44.5,30.13,NNW,340,0.0,1.0,57,0.00,,,0.00,0,WxPro DR1,2013-06-05 01:08:00,
2013-06-04 21:13:00,59.2,44.0,30.13,NNW,340,0.0,1.0,57,0.00,,,0.00,0,WxPro DR1,2013-06-05 01:13:00,
2013-06-04 21:18:00,58.9,43.2,30.13,NNW,340,0.0,2.0,56,0.00,,,0.00,0,WxPro DR1,2013-06-05 01:18:00,
2013-06-04 21:23:00,58.4,45.0,30.13,NNW,340,0.0,2.0,61,0.00,,,0.00,0,WxPro DR1,2013-06-05 01:23:00,
2013-06-04 21:28:00,57.6,45.1,30.13,NNW,340,0.0,0.0,63,0.00,,,0.00,0,WxPro DR1,2013-06-05 01:28:00,
2013-06-04 21:33:00,56.9,44.9,30.14,NNW,340,0.0,0.0,64,0.00,,,0.00,0,WxPro DR1,2013-06-05 01:33:00,
2013-06-04 21:38:00,56.3,44.8,30.14,NNW,340,0.0,0.0,65,0.00,,,0.00,0,WxPro DR1,2013-06-05 01:38:00,
2013-06-04 21:43:00,55.8,45.0,30.14,NNW,340,0.0,0.0,67,0.00,,,0.00,0,WxPro DR1,2013-06-05 01:43:00,
2013-06-04 21:48:00,55.2,44.8,30.14,NNW,340,0.0,0.0,68,0.00,,,0.00,0,WxPro DR1,2013-06-05 01:48:00,
2013-06-04 21:53:00,54.6,45.0,30.14,NNW,340,0.0,0.0,70,0.00,,,0.00,0,WxPro DR1,2013-06-05 01:53:00,
2013-06-04 21:58:00,54.2,45.0,30.14,NNW,340,0.0,0.0,71,0.00,,,0.00,0,WxPro DR1,2013-06-05 01:58:00,
2013-06-04 22:03:00,53.8,45.4,30.14,NNW,340,0.0,0.0,73,0.00,,,0.00,0,WxPro DR1,2013-06-05 02:03:00,
2013-06-04 22:08:00,53.5,45.4,30.14,NNW,340,0.0,0.0,74,0.00,,,0.00,0,WxPro DR1,2013-06-05 02:08:00,
2013-06-04 22:13:00,53.2,45.4,30.14,NNW,340,0.0,0.0,75,0.00,,,0.00,0,WxPro DR1,2013-06-05 02:13:00,
2013-06-04 22:18:00,52.8,45.1,30.14,NNW,338,0.0,0.0,75,0.00,,,0.00,0,WxPro DR1,2013-06-05 02:18:00,
2013-06-04 22:23:00,52.5,44.8,30.14,NNW,340,0.0,0.0,75,0.00,,,0.00,0,WxPro DR1,2013-06-05 02:23:00,
2013-06-04 22:28:00,52.3,45.0,30.14,NNW,340,0.0,0.0,76,0.00,,,0.00,0,WxPro DR1,2013-06-05 02:28:00,
2013-06-04 22:33:00,52.1,44.8,30.14,NNW,340,0.0,0.0,76,0.00,,,0.00,0,WxPro DR1,2013-06-05 02:33:00,
2013-06-04 22:38:00,51.9,44.2,30.15,NNW,340,0.0,0.0,75,0.00,,,0.00,0,WxPro DR1,2013-06-05 02:38:00,
2013-06-04 22:43:00,51.7,44.4,30.14,NNW,340,0.0,0.0,76,0.00,,,0.00,0,WxPro DR1,2013-06-05 02:43:00,
2013-06-04 22:48:00,51.5,44.2,30.14,NNW,340,0.0,0.0,76,0.00,,,0.00,0,WxPro DR1,2013-06-05 02:48:00,
2013-06-04 22:53:00,51.5,44.5,30.14,NNW,339,0.0,0.0,77,0.00,,,0.00,0,WxPro DR1,2013-06-05 02:53:00,
2013-06-04 22:58:00,51.4,44.4,30.15,NNW,340,0.0,0.0,77,0.00,,,0.00,0,WxPro DR1,2013-06-05 02:58:00,
2013-06-04 23:03:00,51.3,44.4,30.14,NNW,340,0.0,0.0,77,0.00,,,0.00,0,WxPro DR1,2013-06-05 03:03:00,
2013-06-04 23:08:00,51.2,44.0,30.14,NNW,340,0.0,0.0,77,0.00,,,0.00,0,WxPro DR1,2013-06-05 03:08:00,
2013-06-04 23:13:00,51.1,44.1,30.14,NNW,340,0.0,0.0,77,0.00,,,0.00,0,WxPro DR1,2013-06-05 03:13:00,
2013-06-04 23:18:00,51.1,44.5,30.14,NNW,340,0.0,0.0,78,0.00,,,0.00,0,WxPro DR1,2013-06-05 03:18:00,
2013-06-04 23:23:00,51.0,44.4,30.14,NNW,340,0.0,0.0,78,0.00,,,0.00,0,WxPro DR1,2013-06-05 03:23:00,
2013-06-04 23:28:00,51.0,44.6,30.14,NNW,340,0.0,0.0,79,0.00,,,0.00,0,WxPro DR1,2013-06-05 03:28:00,
2013-06-04 23:33:00,50.9,45.0,30.14,NNW,340,0.0,0.0,80,0.00,,,0.00,0,WxPro DR1,2013-06-05 03:33:00,
2013-06-04 23:38:00,50.8,44.9,30.14,NNW,338,0.0,0.0,80,0.00,,,0.00,0,WxPro DR1,2013-06-05 03:38:00,
2013-06-04 23:43:00,50.8,44.5,30.14,NNW,340,0.0,0.0,79,0.00,,,0.00,0,WxPro DR1,2013-06-05 03:43:00,
2013-06-04 23:48:00,50.9,44.6,30.15,NNW,339,0.0,0.0,79,0.00,,,0.00,0,WxPro DR1,2013-06-05 03:48:00,
2013-06-04 23:53:00,51.1,44.5,30.15,NNW,340,0.0,0.0,78,0.00,,,0.00,0,WxPro DR1,2013-06-05 03:53:00,
2013-06-04 23:58:00,51.1,43.9,30.15,NNW,340,0.0,0.0,76,0.00,,,0.00,0,WxPro DR1,2013-06-05 03:58:00,